La Coruna Airport, Spain

12:34 PM CET on November 23, 2017 (GMT +0100)
A Coruna

Weather History for LECO - September, 2013

Change the Weather History Date:

Sunday, September 29, 2013

  Actual Average Record
Temperature  
Mean Temperature 68 °F -  
Max Temperature 75 °F 65 °F 87 °F (2011)
Min Temperature 60 °F 52 °F 48 °F (1996)
Cooling Degree Days 2    
Growing Degree Days 18 (Base 50)    
Moisture  
Dew Point 60 °F    
Average Humidity 81    
Maximum Humidity 94    
Minimum Humidity 53    
Precipitation  
Precipitation 0.00 in - - ()
Sea Level Pressure  
Sea Level Pressure 29.70 in    
Wind  
Wind Speed 6 mph ()    
Max Wind Speed 14 mph    
Max Gust Speed -    
Visibility 6.0 miles    
Events Rain    
Averages and records for this station are not official NWS values.
T = Trace of Precipitation, MM = Missing Value Source: Averaged Metar Reports

Daily Weather History Graph

Daily Weather History Graph

Search for Another Location

Airport or City:

Trip Planner

Search our weather history database for the weather conditions in past years. The results will help you decide how hot, cold, wet, or windy it might be!

Date:

Astronomy

Sep. 29, 2013 Rise Set
Actual Time 8:28 AM CEST 8:18 PM CEST
Civil Twilight 8:00 AM CEST 8:46 PM CEST
Nautical Twilight 7:27 AM CEST 9:19 PM CEST
Astronomical Twilight 6:53 AM CEST 9:53 PM CEST
Moon 2:49 AM CEST (9/29) 5:13 PM CEST (9/29)
Length of Visible Light 12h 46m
Length of Day
11h 49m
Waning Crescent, 29% of the Moon is Illuminated
Sep 29
Waning Crescent
Oct 5
New
Oct 12
First Quarter
Oct 19
Full
Oct 27
Last Quarter

Hourly Weather History & Observations

Time (CEST) Temp. Dew Point Humidity Pressure Visibility Wind Dir Wind Speed Gust Speed Precip Events Conditions
12:00 AM 64.4 °F 60.8 °F 88% 29.62 in 6.2 mi SSW 5.8 mph - N/A   Mostly Cloudy
12:30 AM 64.4 °F 60.8 °F 88% 29.62 in 6.2 mi South 3.5 mph - N/A   Scattered Clouds
1:00 AM 64.4 °F 60.8 °F 88% 29.62 in 6.2 mi South 3.5 mph - N/A   Scattered Clouds
5:30 AM 62.6 °F 60.8 °F 94% 29.68 in 6.2 mi Variable 2.3 mph - N/A   Scattered Clouds
6:00 AM 62.6 °F 60.8 °F 94% 29.68 in 6.2 mi Calm Calm - N/A   Mostly Cloudy
6:30 AM 60.8 °F 59.0 °F 94% 29.68 in 6.2 mi Variable 2.3 mph - N/A   Scattered Clouds
7:00 AM 62.6 °F 59.0 °F 88% 29.71 in 6.2 mi Variable 1.2 mph - N/A   Scattered Clouds
7:30 AM 62.6 °F 59.0 °F 88% 29.71 in 6.2 mi Variable 2.3 mph - N/A   Scattered Clouds
8:00 AM 60.8 °F 59.0 °F 94% 29.71 in 6.2 mi Variable 2.3 mph - N/A   Partly Cloudy
8:30 AM 60.8 °F 59.0 °F 94% 29.71 in 6.2 mi Variable 2.3 mph - N/A   Scattered Clouds
9:00 AM 60.8 °F 59.0 °F 94% 29.71 in 6.2 mi Variable 2.3 mph - N/A   Partly Cloudy
9:30 AM 62.6 °F 60.8 °F 94% 29.71 in 6.2 mi SSE 3.5 mph - N/A   Partly Cloudy
10:00 AM 64.4 °F 60.8 °F 88% 29.71 in 6.2 mi SSW 5.8 mph - N/A   Scattered Clouds
10:30 AM 64.4 °F 60.8 °F 88% 29.74 in 6.2 mi South 5.8 mph - N/A   Scattered Clouds
11:00 AM 66.2 °F 59.0 °F 78% 29.74 in 6.2 mi SSW 9.2 mph - N/A   Partly Cloudy
11:30 AM 68.0 °F 60.8 °F 78% 29.74 in 6.2 mi South 9.2 mph - N/A   Scattered Clouds
12:00 PM 69.8 °F 60.8 °F 73% 29.74 in 6.2 mi SSW 9.2 mph - N/A   Scattered Clouds
12:30 PM 71.6 °F 60.8 °F 69% 29.74 in 6.2 mi SSW 9.2 mph - N/A   Scattered Clouds
1:00 PM 71.6 °F 60.8 °F 69% 29.74 in 6.2 mi SSW 10.4 mph - N/A   Scattered Clouds
1:30 PM 73.4 °F 60.8 °F 65% 29.74 in 6.2 mi SSW 11.5 mph - N/A   Mostly Cloudy
2:00 PM 71.6 °F 59.0 °F 64% 29.74 in 6.2 mi SSW 10.4 mph - N/A   Scattered Clouds
2:30 PM 73.4 °F 59.0 °F 61% 29.74 in 6.2 mi SW 11.5 mph - N/A   Scattered Clouds
3:00 PM 75.2 °F 57.2 °F 53% 29.74 in 6.2 mi SSW 11.5 mph - N/A   Scattered Clouds
3:30 PM 71.6 °F 59.0 °F 64% 29.74 in 6.2 mi SSW 12.7 mph - N/A   Scattered Clouds
4:00 PM 71.6 °F 60.8 °F 69% 29.71 in 6.2 mi SSW 10.4 mph - N/A   Partly Cloudy
4:30 PM 71.6 °F 60.8 °F 69% 29.71 in 6.2 mi SSW 9.2 mph - N/A   Scattered Clouds
4:49 PM 69.8 °F 62.6 °F 78% 29.71 in 6.2 mi SSW 10.4 mph - N/A Rain Light Rain
4:51 PM 69.8 °F 62.6 °F 78% 29.71 in 2.5 mi SSW 10.4 mph - N/A Rain Light Rain
5:00 PM 68.0 °F 62.6 °F 83% 29.71 in 3.1 mi SSW 10.4 mph - N/A Rain Light Rain
5:30 PM 68.0 °F 62.6 °F 83% 29.71 in 4.3 mi SW 6.9 mph - N/A   Mostly Cloudy
6:00 PM 68.0 °F 60.8 °F 78% 29.71 in 4.3 mi SSW 10.4 mph - N/A Rain Light Rain
6:30 PM 68.0 °F 60.8 °F 78% 29.71 in 6.2 mi SSW 8.1 mph - N/A   Scattered Clouds
7:00 PM 68.0 °F 60.8 °F 78% 29.71 in 6.2 mi South 12.7 mph - N/A   Scattered Clouds
7:07 PM 66.2 °F 60.8 °F 83% 29.71 in 6.2 mi SSW 11.5 mph - N/A Rain Rain
7:30 PM 66.2 °F 60.8 °F 83% 29.71 in 6.2 mi South 11.5 mph - N/A Rain Light Rain
8:00 PM 66.2 °F 60.8 °F 83% 29.71 in 6.2 mi SSE 9.2 mph - N/A   Mostly Cloudy
8:30 PM 66.2 °F 60.8 °F 83% 29.71 in 6.2 mi SSE 9.2 mph - N/A   Mostly Cloudy
9:00 PM 64.4 °F 60.8 °F 88% 29.68 in 6.2 mi SE 9.2 mph - N/A   Light Drizzle
9:30 PM 64.4 °F 60.8 °F 88% 29.68 in 6.2 mi SSE 10.4 mph - N/A   Light Drizzle
10:00 PM 64.4 °F 60.8 °F 88% 29.68 in 6.2 mi SSE 13.8 mph - N/A   Light Drizzle
10:30 PM 64.4 °F 60.8 °F 88% 29.65 in 6.2 mi SSE 11.5 mph - N/A   Scattered Clouds
11:00 PM 64.4 °F 60.8 °F 88% 29.65 in 6.2 mi SE 11.5 mph - N/A   Scattered Clouds
11:30 PM 64.4 °F 60.8 °F 88% 29.65 in 6.2 mi SSE 11.5 mph - N/A   Mostly Cloudy